Location: Zagreb
(45.8000°N, 16.0000°E)
Time: 12:09:16
(UTC+01:00)

Transit 2A Rocket - Pass Details

Date: 05 October 2020
Orbit: 586 x 916 km, 66.7° (Epoch: 28 October)

Event Time Altitude Azimuth Distance (km) Brightness Sun altitude
Rises 22:25:05 0° 329° (NNW) 3,472 9.2 -39.4°
Reaches altitude 10° 22:28:49 10° 352° (N) 2,473 8.1 -39.9°
Enters shadow 22:30:04 13° 4° (N) 2,242 7.7 -40.0°
Maximum altitude 22:32:04 15° 27° (NNE) 2,064 - -40.3°
Drops below altitude 10° 22:35:10 10° 62° (ENE) 2,346 - -40.7°
Sets 22:38:33 0° 86° (E) 3,194 - -41.1°
